Starlink 30370

operational
NORAD ID: 57751 Int'l Des: 2023-131 Owner: SPXS Country: US Constellation: starlink
LEOCIRCULAR

关于 Starlink 30370

正在加载描述...

实时位置

正在加载3D地球...

即将过境

高度历史

Altitude vs Time

uPlot chart will show altitude changes over time

两行轨道根数

1 57751U 23131V 25304.53479166 -.00003014 00000-0 -20800-3 0 9993
2 57751 43.0036 141.0349 0001906 272.3341 87.7284 15.02558193120641
Epoch: Oct 31, 2025 • Age: 23 hours

当前状态

高度 562.8 km
速度 7.58 km/s
星下点 40.45°N, 12.03°W
发射日期 Sep 1, 2023
运行时间 2.1 years
类型 internet

技术详情

分类 Payload
质量 730.00 kg
干质量 700.00 kg
总质量 730.00 kg
长度 0.30 m
直径 4.10 m
跨度 29.00 m
形状 Box + pan
制造商 SPXS
平台类型 Starlink V2M
阶段状态 In Orbit
所有者/国家 SPXS/US

大型星座

Loading constellations...